Time,TemperatureF,DewpointF,PressureIn,WindDirection,WindDirectionDegrees,WindSpeedMPH,WindSpeedGustMPH,Humidity,HourlyPrecipIn,Conditions,Clouds,dailyrainin,SoftwareType,DateUTC
2014-02-02 00:00:00,47.3,41.1,29.90,WSW,247,2.0,0.0,79,0.00,,,0.00,gsc,2014-02-02 05:00:00,
2014-02-02 00:01:00,47.3,41.1,29.90,ENE,67,2.0,0.0,79,0.00,,,0.00,gsc,2014-02-02 05:01:00,
2014-02-02 00:02:00,47.3,41.1,29.90,ENE,67,3.0,0.0,79,0.00,,,0.00,gsc,2014-02-02 05:02:00,
2014-02-02 00:03:00,47.3,41.1,29.90,NNW,337,2.0,0.0,79,0.00,,,0.00,gsc,2014-02-02 05:03:00,
2014-02-02 00:05:00,47.3,41.1,29.90,SSW,202,5.0,0.0,79,0.00,,,0.00,gsc,2014-02-02 05:05:00,
2014-02-02 00:10:00,47.3,41.1,29.90,SSW,202,5.0,0.0,79,0.00,,,0.00,gsc,2014-02-02 05:10:00,
2014-02-02 00:15:00,47.5,41.3,29.89,SSW,202,4.0,0.0,79,0.00,,,0.00,gsc,2014-02-02 05:15:00,
2014-02-02 00:20:00,47.5,41.3,29.89,ESE,112,3.0,0.0,79,0.00,,,0.00,gsc,2014-02-02 05:20:00,
2014-02-02 00:25:00,47.5,41.3,29.89,ESE,112,4.0,0.0,79,0.00,,,0.00,gsc,2014-02-02 05:25:00,
2014-02-02 00:30:00,47.3,41.1,29.89,ESE,112,5.0,0.0,79,0.00,,,0.00,gsc,2014-02-02 05:30:00,
2014-02-02 00:35:00,46.9,41.1,29.89,ENE,67,4.0,0.0,80,0.00,,,0.00,gsc,2014-02-02 05:35:00,
2014-02-02 00:40:00,46.8,40.9,29.89,WSW,247,3.0,0.0,80,0.00,,,0.00,gsc,2014-02-02 05:40:00,
2014-02-02 00:45:00,46.4,40.9,29.89,NNE,22,5.0,0.0,81,0.00,,,0.00,gsc,2014-02-02 05:45:00,
2014-02-02 00:50:00,45.9,40.7,29.89,WSW,247,3.0,0.0,82,0.00,,,0.00,gsc,2014-02-02 05:50:00,
2014-02-02 00:55:00,46.4,40.9,29.88,WSW,247,2.0,0.0,81,0.00,,,0.00,gsc,2014-02-02 05:55:00,
2014-02-02 01:00:00,46.4,40.9,29.88,SSW,202,2.0,0.0,81,0.00,,,0.00,gsc,2014-02-02 06:00:00,
2014-02-02 01:05:00,46.6,40.7,29.88,ENE,67,3.0,0.0,80,0.00,,,0.00,gsc,2014-02-02 06:05:00,
2014-02-02 01:10:00,46.8,40.6,29.88,WSW,247,7.0,0.0,79,0.00,,,0.00,gsc,2014-02-02 06:10:00,
2014-02-02 01:15:00,46.9,40.8,29.88,WNW,292,3.0,0.0,79,0.00,,,0.00,gsc,2014-02-02 06:15:00,
2014-02-02 01:20:00,46.8,40.6,29.88,WSW,247,4.0,0.0,79,0.00,,,0.00,gsc,2014-02-02 06:20:00,
2014-02-02 01:25:00,46.8,40.6,29.88,WNW,292,3.0,0.0,79,0.00,,,0.00,gsc,2014-02-02 06:25:00,
2014-02-02 01:30:00,46.8,40.6,29.88,WSW,247,3.0,0.0,79,0.00,,,0.00,gsc,2014-02-02 06:30:00,
2014-02-02 01:35:00,46.8,40.6,29.88,WNW,292,5.0,0.0,79,0.00,,,0.00,gsc,2014-02-02 06:35:00,
2014-02-02 01:40:00,46.8,40.9,29.88,WNW,292,5.0,0.0,80,0.00,,,0.00,gsc,2014-02-02 06:40:00,
2014-02-02 01:45:00,46.6,40.7,29.88,WSW,247,2.0,0.0,80,0.00,,,0.00,gsc,2014-02-02 06:45:00,
2014-02-02 01:50:00,46.6,41.1,29.88,WNW,292,4.0,0.0,81,0.00,,,0.00,gsc,2014-02-02 06:50:00,
2014-02-02 01:55:00,46.4,41.5,29.88,WNW,292,4.0,0.0,83,0.00,,,0.00,gsc,2014-02-02 06:55:00,
2014-02-02 02:00:00,46.0,41.5,29.88,WNW,292,5.0,0.0,84,0.00,,,0.00,gsc,2014-02-02 07:00:00,
2014-02-02 02:05:00,45.9,41.3,29.88,WNW,292,7.0,0.0,84,0.00,,,0.00,gsc,2014-02-02 07:05:00,
2014-02-02 02:10:00,46.0,41.5,29.88,WSW,247,4.0,0.0,84,0.00,,,0.00,gsc,2014-02-02 07:10:00,
2014-02-02 02:15:00,46.4,41.5,29.88,ENE,67,3.0,0.0,83,0.00,,,0.00,gsc,2014-02-02 07:15:00,
2014-02-02 02:20:00,46.4,41.5,29.88,NNE,22,4.0,0.0,83,0.00,,,0.00,gsc,2014-02-02 07:20:00,
2014-02-02 02:25:00,46.4,41.8,29.89,WSW,247,3.0,0.0,84,0.00,,,0.00,gsc,2014-02-02 07:25:00,
2014-02-02 02:30:00,45.9,41.6,29.88,NNE,22,4.0,0.0,85,0.00,,,0.00,gsc,2014-02-02 07:30:00,
2014-02-02 02:35:00,45.9,41.9,29.88,WNW,292,4.0,0.0,86,0.00,,,0.00,gsc,2014-02-02 07:35:00,
2014-02-02 02:40:00,45.9,41.9,29.88,WSW,247,4.0,0.0,86,0.00,,,0.00,gsc,2014-02-02 07:40:00,
2014-02-02 02:45:00,45.9,41.9,29.88,WSW,247,4.0,0.0,86,0.00,,,0.00,gsc,2014-02-02 07:45:00,
2014-02-02 02:50:00,45.9,42.2,29.88,WNW,292,4.0,0.0,87,0.00,,,0.00,gsc,2014-02-02 07:50:00,
2014-02-02 02:55:00,45.5,42.2,29.88,WNW,292,4.0,0.0,88,0.00,,,0.00,gsc,2014-02-02 07:55:00,
2014-02-02 03:00:00,45.5,42.4,29.88,ENE,67,0.0,0.0,89,0.00,,,0.00,gsc,2014-02-02 08:00:00,
2014-02-02 03:05:00,45.0,41.9,29.88,WNW,292,2.0,0.0,89,0.00,,,0.00,gsc,2014-02-02 08:05:00,
2014-02-02 03:10:00,45.0,42.2,29.88,WSW,247,0.0,0.0,90,0.00,,,0.00,gsc,2014-02-02 08:10:00,
2014-02-02 03:15:00,44.2,41.5,29.88,South,180,0.0,0.0,90,0.00,,,0.00,gsc,2014-02-02 08:15:00,
2014-02-02 03:20:00,43.7,41.2,29.88,SSE,157,0.0,0.0,91,0.00,,,0.00,gsc,2014-02-02 08:20:00,
2014-02-02 03:25:00,43.2,41.0,29.88,SSW,202,0.0,0.0,92,0.00,,,0.00,gsc,2014-02-02 08:25:00,
2014-02-02 03:30:00,43.2,41.3,29.88,SW,225,0.0,0.0,93,0.00,,,0.00,gsc,2014-02-02 08:30:00,
2014-02-02 03:35:00,43.0,41.4,29.88,South,180,2.0,0.0,94,0.00,,,0.00,gsc,2014-02-02 08:35:00,
2014-02-02 03:40:00,42.4,40.6,29.88,SW,225,2.0,0.0,93,0.00,,,0.00,gsc,2014-02-02 08:40:00,
2014-02-02 03:45:00,42.3,40.4,29.88,SE,135,3.0,0.0,93,0.00,,,0.00,gsc,2014-02-02 08:45:00,
2014-02-02 03:50:00,41.5,39.7,29.87,South,180,3.0,0.0,93,0.00,,,0.00,gsc,2014-02-02 08:50:00,
2014-02-02 03:55:00,41.4,40.0,29.87,South,180,3.0,0.0,95,0.00,,,0.00,gsc,2014-02-02 08:55:00,
2014-02-02 04:00:00,41.2,40.1,29.87,South,180,2.0,0.0,96,0.00,,,0.00,gsc,2014-02-02 09:00:00,
2014-02-02 04:05:00,41.2,40.1,29.87,South,180,3.0,0.0,96,0.00,,,0.00,gsc,2014-02-02 09:05:00,
2014-02-02 04:10:00,40.6,39.6,29.87,South,180,3.0,0.0,96,0.00,,,0.00,gsc,2014-02-02 09:10:00,
2014-02-02 04:15:00,40.6,39.9,29.86,South,180,3.0,0.0,97,0.00,,,0.00,gsc,2014-02-02 09:15:00,
2014-02-02 04:20:00,40.5,39.7,29.86,South,180,3.0,0.0,97,0.00,,,0.00,gsc,2014-02-02 09:20:00,
2014-02-02 04:25:00,40.5,39.7,29.86,South,180,2.0,0.0,97,0.00,,,0.00,gsc,2014-02-02 09:25:00,
2014-02-02 04:30:00,40.5,39.7,29.86,SSE,157,1.0,0.0,97,0.00,,,0.00,gsc,2014-02-02 09:30:00,
2014-02-02 04:35:00,40.5,39.7,29.86,SSE,157,0.0,0.0,97,0.00,,,0.00,gsc,2014-02-02 09:35:00,
2014-02-02 04:40:00,40.5,39.7,29.87,SSW,202,0.0,0.0,97,0.00,,,0.00,gsc,2014-02-02 09:40:00,
2014-02-02 04:45:00,41.0,40.2,29.87,ESE,112,0.0,0.0,97,0.00,,,0.00,gsc,2014-02-02 09:45:00,
2014-02-02 04:50:00,41.0,40.2,29.86,SSW,202,0.0,0.0,97,0.00,,,0.00,gsc,2014-02-02 09:50:00,
2014-02-02 04:55:00,41.0,40.2,29.86,SSW,202,0.0,0.0,97,0.00,,,0.00,gsc,2014-02-02 09:55:00,
2014-02-02 05:00:00,40.6,39.9,29.87,ESE,112,0.0,0.0,97,0.00,,,0.00,gsc,2014-02-02 10:00:00,
2014-02-02 05:05:00,41.0,40.5,29.87,ESE,112,0.0,0.0,98,0.00,,,0.00,gsc,2014-02-02 10:05:00,
2014-02-02 05:10:00,41.4,40.8,29.87,SSW,202,0.0,0.0,98,0.00,,,0.00,gsc,2014-02-02 10:10:00,
2014-02-02 05:15:00,41.9,41.4,29.86,SSE,157,0.0,0.0,98,0.00,,,0.00,gsc,2014-02-02 10:15:00,
2014-02-02 05:20:00,41.5,41.0,29.86,South,180,0.0,0.0,98,0.00,,,0.00,gsc,2014-02-02 10:20:00,
2014-02-02 05:25:00,41.9,41.1,29.86,South,180,2.0,0.0,97,0.00,,,0.00,gsc,2014-02-02 10:25:00,
2014-02-02 05:30:00,41.9,41.1,29.87,SSW,202,2.0,0.0,97,0.00,,,0.00,gsc,2014-02-02 10:30:00,
2014-02-02 05:35:00,42.1,41.0,29.86,South,180,0.0,0.0,96,0.00,,,0.00,gsc,2014-02-02 10:35:00,
2014-02-02 05:40:00,42.1,41.0,29.86,South,180,0.0,0.0,96,0.00,,,0.00,gsc,2014-02-02 10:40:00,
2014-02-02 05:45:00,41.5,40.5,29.86,South,180,0.0,0.0,96,0.00,,,0.00,gsc,2014-02-02 10:45:00,
2014-02-02 05:50:00,41.4,40.3,29.86,NE,45,0.0,0.0,96,0.00,,,0.00,gsc,2014-02-02 10:50:00,
2014-02-02 05:55:00,41.2,40.1,29.86,WNW,292,0.0,0.0,96,0.00,,,0.00,gsc,2014-02-02 10:55:00,
2014-02-02 06:00:00,41.2,40.4,29.87,WNW,292,0.0,0.0,97,0.00,,,0.00,gsc,2014-02-02 11:00:00,
2014-02-02 06:05:00,41.2,40.7,29.87,ESE,112,0.0,0.0,98,0.00,,,0.00,gsc,2014-02-02 11:05:00,
2014-02-02 06:10:00,41.2,40.7,29.88,SSE,157,0.0,0.0,98,0.00,,,0.00,gsc,2014-02-02 11:10:00,
2014-02-02 06:15:00,40.6,40.1,29.87,SW,225,0.0,0.0,98,0.00,,,0.00,gsc,2014-02-02 11:15:00,
2014-02-02 06:20:00,40.5,39.9,29.87,ENE,67,0.0,0.0,98,0.00,,,0.00,gsc,2014-02-02 11:20:00,
2014-02-02 06:25:00,40.5,39.7,29.87,SE,135,0.0,0.0,97,0.00,,,0.00,gsc,2014-02-02 11:25:00,
2014-02-02 06:30:00,40.5,39.7,29.88,SSE,157,0.0,0.0,97,0.00,,,0.00,gsc,2014-02-02 11:30:00,
2014-02-02 06:35:00,40.3,39.5,29.88,South,180,0.0,0.0,97,0.00,,,0.00,gsc,2014-02-02 11:35:00,
2014-02-02 06:40:00,40.3,39.5,29.88,ESE,112,0.0,0.0,97,0.00,,,0.00,gsc,2014-02-02 11:40:00,
2014-02-02 06:45:00,40.6,40.4,29.88,SSW,202,0.0,0.0,99,0.00,,,0.00,gsc,2014-02-02 11:45:00,
2014-02-02 06:50:00,41.2,40.9,29.88,SSE,157,0.0,0.0,99,0.00,,,0.00,gsc,2014-02-02 11:50:00,
2014-02-02 06:55:00,40.6,40.4,29.88,South,180,2.0,0.0,99,0.00,,,0.00,gsc,2014-02-02 11:55:00,
2014-02-02 07:00:00,40.3,40.0,29.88,South,180,2.0,0.0,99,0.00,,,0.00,gsc,2014-02-02 12:00:00,
2014-02-02 07:05:00,39.7,39.2,29.88,South,180,2.0,0.0,98,0.00,,,0.00,gsc,2014-02-02 12:05:00,
2014-02-02 07:10:00,39.6,39.0,29.88,South,180,2.0,0.0,98,0.00,,,0.00,gsc,2014-02-02 12:10:00,
2014-02-02 07:15:00,39.6,39.0,29.87,SSW,202,4.0,0.0,98,0.00,,,0.00,gsc,2014-02-02 12:15:00,
2014-02-02 07:20:00,39.2,38.7,29.87,South,180,2.0,0.0,98,0.00,,,0.00,gsc,2014-02-02 12:20:00,
2014-02-02 07:25:00,39.2,38.7,29.87,SE,135,0.0,0.0,98,0.00,,,0.00,gsc,2014-02-02 12:25:00,
2014-02-02 07:30:00,39.2,38.7,29.87,SSE,157,0.0,0.0,98,0.00,,,0.00,gsc,2014-02-02 12:30:00,
2014-02-02 07:35:00,38.8,38.3,29.88,WNW,292,2.0,0.0,98,0.00,,,0.00,gsc,2014-02-02 12:35:00,
2014-02-02 07:40:00,39.2,38.7,29.88,SSE,157,3.0,0.0,98,0.00,,,0.00,gsc,2014-02-02 12:40:00,
2014-02-02 07:45:00,39.4,38.9,29.89,SSW,202,2.0,0.0,98,0.00,,,0.00,gsc,2014-02-02 12:45:00,
2014-02-02 07:50:00,39.4,38.9,29.89,ESE,112,0.0,0.0,98,0.00,,,0.00,gsc,2014-02-02 12:50:00,
2014-02-02 07:55:00,39.4,38.9,29.89,South,180,2.0,0.0,98,0.00,,,0.00,gsc,2014-02-02 12:55:00,
2014-02-02 08:00:00,39.2,38.4,29.89,South,180,2.0,0.0,97,0.00,,,0.00,gsc,2014-02-02 13:00:00,
2014-02-02 08:05:00,38.8,37.8,29.88,South,180,2.0,0.0,96,0.00,,,0.00,gsc,2014-02-02 13:05:00,
2014-02-02 08:10:00,38.7,37.6,29.89,South,180,2.0,0.0,96,0.00,,,0.00,gsc,2014-02-02 13:10:00,
2014-02-02 08:15:00,38.8,37.8,29.89,SSW,202,2.0,0.0,96,0.00,,,0.00,gsc,2014-02-02 13:15:00,
2014-02-02 08:20:00,39.7,39.2,29.89,ENE,67,2.0,0.0,98,0.00,,,0.00,gsc,2014-02-02 13:20:00,
2014-02-02 08:25:00,40.5,39.7,29.90,SSE,157,2.0,0.0,97,0.00,,,0.00,gsc,2014-02-02 13:25:00,
2014-02-02 08:30:00,40.5,39.4,29.90,SSW,202,2.0,0.0,96,0.00,,,0.00,gsc,2014-02-02 13:30:00,
2014-02-02 08:35:00,39.9,38.9,29.90,ESE,112,3.0,0.0,96,0.00,,,0.00,gsc,2014-02-02 13:35:00,
2014-02-02 08:40:00,40.6,39.9,29.90,WSW,247,0.0,0.0,97,0.00,,,0.00,gsc,2014-02-02 13:40:00,
2014-02-02 08:45:00,41.4,40.8,29.90,NNW,337,2.0,0.0,98,0.00,,,0.00,gsc,2014-02-02 13:45:00,
2014-02-02 08:50:00,42.8,40.9,29.90,South,180,3.0,0.0,93,0.00,,,0.00,gsc,2014-02-02 13:50:00,
2014-02-02 08:55:00,43.0,40.2,29.90,ESE,112,0.0,0.0,90,0.00,,,0.00,gsc,2014-02-02 13:55:00,
2014-02-02 09:00:00,43.2,40.1,29.90,SSE,157,0.0,0.0,89,0.00,,,0.00,gsc,2014-02-02 14:00:00,
2014-02-02 09:05:00,43.3,40.3,29.90,SSW,202,1.0,0.0,89,0.00,,,0.00,gsc,2014-02-02 14:05:00,
2014-02-02 09:10:00,43.3,40.3,29.89,SSE,157,3.0,0.0,89,0.00,,,0.00,gsc,2014-02-02 14:10:00,
2014-02-02 09:15:00,43.3,40.3,29.89,SSE,157,3.0,0.0,89,0.00,,,0.00,gsc,2014-02-02 14:15:00,
2014-02-02 09:20:00,43.3,40.3,29.89,SSE,157,3.0,0.0,89,0.00,,,0.00,gsc,2014-02-02 14:20:00,
2014-02-02 09:25:00,43.3,40.3,29.89,SSE,157,3.0,0.0,89,0.00,,,0.00,gsc,2014-02-02 14:25:00,
2014-02-02 09:30:00,43.3,40.3,29.89,SSE,157,3.0,0.0,89,0.00,,,0.00,gsc,2014-02-02 14:30:00,
2014-02-02 09:35:00,43.3,40.3,29.89,SSE,157,3.0,0.0,89,0.00,,,0.00,gsc,2014-02-02 14:35:00,
2014-02-02 09:40:00,43.3,40.3,29.89,SSE,157,3.0,0.0,89,0.00,,,0.00,gsc,2014-02-02 14:40:00,
2014-02-02 09:45:00,43.3,40.3,29.89,SSE,157,3.0,0.0,89,0.00,,,0.00,gsc,2014-02-02 14:45:00,
2014-02-02 09:50:00,43.3,40.3,29.89,SSE,157,3.0,0.0,89,0.00,,,0.00,gsc,2014-02-02 14:50:00,
2014-02-02 09:55:00,43.3,40.3,29.89,SSE,157,3.0,0.0,89,0.00,,,0.00,gsc,2014-02-02 14:55:00,
2014-02-02 10:00:00,43.3,40.3,29.89,SSE,157,3.0,0.0,89,0.00,,,0.00,gsc,2014-02-02 15:00:00,
2014-02-02 10:05:00,43.3,40.3,29.89,SSE,157,3.0,0.0,89,0.00,,,0.00,gsc,2014-02-02 15:05:00,
2014-02-02 10:10:00,43.3,40.3,29.89,SSE,157,3.0,0.0,89,0.00,,,0.00,gsc,2014-02-02 15:10:00,
2014-02-02 10:15:00,43.3,40.3,29.89,SSE,157,3.0,0.0,89,0.00,,,0.00,gsc,2014-02-02 15:15:00,
2014-02-02 10:20:00,43.3,40.3,29.89,SSE,157,3.0,0.0,89,0.00,,,0.00,gsc,2014-02-02 15:20:00,
2014-02-02 10:25:00,43.3,40.3,29.89,SSE,157,3.0,0.0,89,0.00,,,0.00,gsc,2014-02-02 15:25:00,
2014-02-02 10:30:00,43.3,40.3,29.89,SSE,157,3.0,0.0,89,0.00,,,0.00,gsc,2014-02-02 15:30:00,
2014-02-02 10:35:00,43.3,40.3,29.89,SSE,157,3.0,0.0,89,0.00,,,0.00,gsc,2014-02-02 15:35:00,
2014-02-02 10:40:00,43.3,40.3,29.89,SSE,157,3.0,0.0,89,0.00,,,0.00,gsc,2014-02-02 15:40:00,
2014-02-02 10:45:00,43.3,40.3,29.89,SSE,157,3.0,0.0,89,0.00,,,0.00,gsc,2014-02-02 15:45:00,
2014-02-02 10:50:00,43.3,40.3,29.89,SSE,157,3.0,0.0,89,0.00,,,0.00,gsc,2014-02-02 15:50:00,
2014-02-02 10:55:00,43.3,40.3,29.89,SSE,157,3.0,0.0,89,0.00,,,0.00,gsc,2014-02-02 15:55:00,
2014-02-02 11:00:00,43.3,40.3,29.89,SSE,157,3.0,0.0,89,0.00,,,0.00,gsc,2014-02-02 16:00:00,
2014-02-02 11:05:00,43.3,40.3,29.89,SSE,157,3.0,0.0,89,0.00,,,0.00,gsc,2014-02-02 16:05:00,
2014-02-02 11:10:00,43.3,40.3,29.89,SSE,157,3.0,0.0,89,0.00,,,0.00,gsc,2014-02-02 16:10:00,
2014-02-02 11:15:00,43.3,40.3,29.89,SSE,157,3.0,0.0,89,0.00,,,0.00,gsc,2014-02-02 16:15:00,
2014-02-02 11:20:00,43.3,40.3,29.89,SSE,157,3.0,0.0,89,0.00,,,0.00,gsc,2014-02-02 16:20:00,
2014-02-02 11:25:00,43.3,40.3,29.89,SSE,157,3.0,0.0,89,0.00,,,0.00,gsc,2014-02-02 16:25:00,
2014-02-02 11:30:00,43.3,40.3,29.89,SSE,157,3.0,0.0,89,0.00,,,0.00,gsc,2014-02-02 16:30:00,
2014-02-02 11:35:00,43.3,40.3,29.89,SSE,157,3.0,0.0,89,0.00,,,0.00,gsc,2014-02-02 16:35:00,
2014-02-02 11:40:00,43.3,40.3,29.89,SSE,157,3.0,0.0,89,0.00,,,0.00,gsc,2014-02-02 16:40:00,
2014-02-02 11:45:00,43.3,40.3,29.89,SSE,157,3.0,0.0,89,0.00,,,0.00,gsc,2014-02-02 16:45:00,
2014-02-02 11:50:00,43.3,40.3,29.89,SSE,157,3.0,0.0,89,0.00,,,0.00,gsc,2014-02-02 16:50:00,
2014-02-02 11:55:00,43.3,40.3,29.89,SSE,157,3.0,0.0,89,0.00,,,0.00,gsc,2014-02-02 16:55:00,
2014-02-02 12:00:00,43.3,40.3,29.89,SSE,157,3.0,0.0,89,0.00,,,0.00,gsc,2014-02-02 17:00:00,
2014-02-02 12:05:00,43.3,40.3,29.89,SSE,157,3.0,0.0,89,0.00,,,0.00,gsc,2014-02-02 17:05:00,
2014-02-02 12:10:00,43.3,40.3,29.89,SSE,157,3.0,0.0,89,0.00,,,0.00,gsc,2014-02-02 17:10:00,
2014-02-02 12:15:00,43.3,40.3,29.89,SSE,157,3.0,0.0,89,0.00,,,0.00,gsc,2014-02-02 17:15:00,
2014-02-02 12:20:00,43.3,40.3,29.89,SSE,157,3.0,0.0,89,0.00,,,0.00,gsc,2014-02-02 17:20:00,
2014-02-02 12:25:00,43.3,40.3,29.89,SSE,157,3.0,0.0,89,0.00,,,0.00,gsc,2014-02-02 17:25:00,
2014-02-02 12:30:00,43.3,40.3,29.89,SSE,157,3.0,0.0,89,0.00,,,0.00,gsc,2014-02-02 17:30:00,
2014-02-02 12:35:00,43.3,40.3,29.89,SSE,157,3.0,0.0,89,0.00,,,0.00,gsc,2014-02-02 17:35:00,
2014-02-02 12:40:00,43.3,40.3,29.89,SSE,157,3.0,0.0,89,0.00,,,0.00,gsc,2014-02-02 17:40:00,
2014-02-02 12:45:00,43.3,40.3,29.89,SSE,157,3.0,0.0,89,0.00,,,0.00,gsc,2014-02-02 17:45:00,
2014-02-02 12:50:00,43.3,40.3,29.89,SSE,157,3.0,0.0,89,0.00,,,0.00,gsc,2014-02-02 17:50:00,
2014-02-02 12:55:00,43.3,40.3,29.89,SSE,157,3.0,0.0,89,0.00,,,0.00,gsc,2014-02-02 17:55:00,
2014-02-02 13:00:00,43.3,40.3,29.89,SSE,157,3.0,0.0,89,0.00,,,0.00,gsc,2014-02-02 18:00:00,
2014-02-02 13:05:00,43.3,40.3,29.89,SSE,157,3.0,0.0,89,0.00,,,0.00,gsc,2014-02-02 18:05:00,
2014-02-02 13:10:00,43.3,40.3,29.89,SSE,157,3.0,0.0,89,0.00,,,0.00,gsc,2014-02-02 18:10:00,
2014-02-02 13:15:00,43.3,40.3,29.89,SSE,157,3.0,0.0,89,0.00,,,0.00,gsc,2014-02-02 18:15:00,
2014-02-02 13:20:00,43.3,40.3,29.89,SSE,157,3.0,0.0,89,0.00,,,0.00,gsc,2014-02-02 18:20:00,
2014-02-02 13:25:00,43.3,40.3,29.89,SSE,157,3.0,0.0,89,0.00,,,0.00,gsc,2014-02-02 18:25:00,
2014-02-02 13:30:00,43.3,40.3,29.89,SSE,157,3.0,0.0,89,0.00,,,0.00,gsc,2014-02-02 18:30:00,
2014-02-02 13:35:00,43.3,40.3,29.89,SSE,157,3.0,0.0,89,0.00,,,0.00,gsc,2014-02-02 18:35:00,
2014-02-02 13:40:00,43.3,40.3,29.89,SSE,157,3.0,0.0,89,0.00,,,0.00,gsc,2014-02-02 18:40:00,
2014-02-02 13:45:00,43.3,40.3,29.89,SSE,157,3.0,0.0,89,0.00,,,0.00,gsc,2014-02-02 18:45:00,
2014-02-02 13:50:00,43.3,40.3,29.89,SSE,157,3.0,0.0,89,0.00,,,0.00,gsc,2014-02-02 18:50:00,
2014-02-02 13:55:00,43.3,40.3,29.89,SSE,157,3.0,0.0,89,0.00,,,0.00,gsc,2014-02-02 18:55:00,
2014-02-02 14:00:00,43.3,40.3,29.89,SSE,157,3.0,0.0,89,0.00,,,0.00,gsc,2014-02-02 19:00:00,
2014-02-02 15:57:00,45.7,45.4,29.86,South,180,2.0,0.0,99,0.00,,,0.00,gsc,2014-02-02 20:57:00,
2014-02-02 16:02:00,45.7,45.4,29.84,North,0,0.0,0.0,99,0.00,,,0.00,gsc,2014-02-02 21:02:00,
2014-02-02 16:07:00,45.9,45.6,29.84,SE,135,0.0,0.0,99,0.00,,,0.00,gsc,2014-02-02 21:07:00,
2014-02-02 16:12:00,45.9,45.6,29.84,South,180,0.0,0.0,99,0.00,,,0.00,gsc,2014-02-02 21:12:00,
2014-02-02 16:17:00,45.9,45.6,29.84,NNW,337,0.0,0.0,99,0.00,,,0.00,gsc,2014-02-02 21:17:00,
2014-02-02 16:22:00,46.0,45.8,29.84,North,0,2.0,0.0,99,0.00,,,0.00,gsc,2014-02-02 21:22:00,
2014-02-02 16:27:00,46.0,45.8,29.84,NE,45,2.0,0.0,99,0.00,,,0.00,gsc,2014-02-02 21:27:00,
2014-02-02 16:32:00,46.4,46.1,29.84,NNW,337,2.0,0.0,99,0.00,,,0.00,gsc,2014-02-02 21:32:00,
2014-02-02 16:37:00,46.4,46.1,29.83,NNW,337,2.0,0.0,99,0.00,,,0.00,gsc,2014-02-02 21:37:00,
2014-02-02 16:42:00,46.4,46.1,29.84,North,0,2.0,0.0,99,0.00,,,0.00,gsc,2014-02-02 21:42:00,
2014-02-02 16:47:00,46.4,46.1,29.83,NE,45,3.0,0.0,99,0.00,,,0.00,gsc,2014-02-02 21:47:00,
2014-02-02 16:52:00,46.4,45.9,29.84,North,0,2.0,0.0,98,0.00,,,0.00,gsc,2014-02-02 21:52:00,
2014-02-02 16:57:00,46.4,45.9,29.83,NE,45,3.0,0.0,98,0.00,,,0.00,gsc,2014-02-02 21:57:00,
2014-02-02 17:02:00,46.4,45.9,29.84,NE,45,0.0,0.0,98,0.00,,,0.00,gsc,2014-02-02 22:02:00,
2014-02-02 17:07:00,46.4,45.9,29.83,NNW,337,2.0,0.0,98,0.00,,,0.00,gsc,2014-02-02 22:07:00,
2014-02-02 17:12:00,46.0,45.5,29.83,NNW,337,3.0,0.0,98,0.00,,,0.00,gsc,2014-02-02 22:12:00,
2014-02-02 17:17:00,45.9,45.3,29.83,NNE,22,3.0,0.0,98,0.00,,,0.00,gsc,2014-02-02 22:17:00,
2014-02-02 17:22:00,45.9,45.3,29.83,North,0,3.0,0.0,98,0.00,,,0.00,gsc,2014-02-02 22:22:00,
2014-02-02 17:27:00,45.9,45.3,29.83,NNW,337,2.0,0.0,98,0.00,,,0.00,gsc,2014-02-02 22:27:00,
2014-02-02 17:32:00,45.9,45.3,29.83,NE,45,3.0,0.0,98,0.00,,,0.00,gsc,2014-02-02 22:32:00,
2014-02-02 17:37:00,45.9,45.3,29.82,NE,45,0.0,0.0,98,0.00,,,0.00,gsc,2014-02-02 22:37:00,
2014-02-02 17:42:00,45.9,45.6,29.82,North,0,3.0,0.0,99,0.00,,,0.00,gsc,2014-02-02 22:42:00,
2014-02-02 17:47:00,45.9,45.6,29.82,NW,315,3.0,0.0,99,0.00,,,0.00,gsc,2014-02-02 22:47:00,
2014-02-02 17:52:00,45.9,45.6,29.83,NW,315,3.0,0.0,99,0.00,,,0.00,gsc,2014-02-02 22:52:00,
2014-02-02 17:57:00,46.0,45.8,29.83,NNW,337,2.0,0.0,99,0.00,,,0.00,gsc,2014-02-02 22:57:00,
2014-02-02 18:02:00,46.0,45.8,29.82,North,0,4.0,0.0,99,0.00,,,0.00,gsc,2014-02-02 23:02:00,
2014-02-02 18:07:00,45.9,45.3,29.82,North,0,2.0,0.0,98,0.00,,,0.00,gsc,2014-02-02 23:07:00,
2014-02-02 18:12:00,45.9,45.3,29.82,NW,315,1.0,0.0,98,0.00,,,0.00,gsc,2014-02-02 23:12:00,
2014-02-02 18:17:00,45.9,45.3,29.82,North,0,2.0,0.0,98,0.00,,,0.00,gsc,2014-02-02 23:17:00,
2014-02-02 18:22:00,45.9,45.3,29.81,North,0,3.0,0.0,98,0.00,,,0.00,gsc,2014-02-02 23:22:00,
2014-02-02 18:27:00,45.9,45.6,29.81,NW,315,2.0,0.0,99,0.00,,,0.00,gsc,2014-02-02 23:27:00,
2014-02-02 18:32:00,45.9,45.6,29.81,NW,315,4.0,0.0,99,0.00,,,0.00,gsc,2014-02-02 23:32:00,
2014-02-02 18:37:00,45.9,45.6,29.80,North,0,3.0,0.0,99,0.00,,,0.00,gsc,2014-02-02 23:37:00,
2014-02-02 18:42:00,45.9,45.6,29.80,NE,45,4.0,0.0,99,0.00,,,0.00,gsc,2014-02-02 23:42:00,
2014-02-02 18:47:00,45.9,45.6,29.80,North,0,3.0,0.0,99,0.00,,,0.00,gsc,2014-02-02 23:47:00,
2014-02-02 18:52:00,45.9,45.6,29.81,WNW,292,2.0,0.0,99,0.00,,,0.00,gsc,2014-02-02 23:52:00,
2014-02-02 18:57:00,45.9,45.6,29.81,West,270,0.0,0.0,99,0.00,,,0.00,gsc,2014-02-02 23:57:00,
2014-02-02 19:02:00,45.9,45.6,29.81,SW,225,3.0,0.0,99,0.00,,,0.00,gsc,2014-02-03 00:02:00,
2014-02-02 19:07:00,45.9,45.6,29.81,SE,135,1.0,0.0,99,0.00,,,0.00,gsc,2014-02-03 00:07:00,
2014-02-02 19:12:00,45.9,45.6,29.80,West,270,2.0,0.0,99,0.00,,,0.00,gsc,2014-02-03 00:12:00,
2014-02-02 19:17:00,45.9,45.6,29.80,NNW,337,2.0,0.0,99,0.00,,,0.00,gsc,2014-02-03 00:17:00,
2014-02-02 19:22:00,45.9,45.6,29.81,NNW,337,3.0,0.0,99,0.00,,,0.00,gsc,2014-02-03 00:22:00,
2014-02-02 19:27:00,45.9,45.6,29.80,West,270,2.0,0.0,99,0.01,,,0.00,gsc,2014-02-03 00:27:00,
2014-02-02 19:32:00,45.9,45.6,29.80,SW,225,2.0,0.0,99,0.00,,,0.00,gsc,2014-02-03 00:32:00,
2014-02-02 19:37:00,45.9,45.6,29.80,North,0,0.0,0.0,99,0.01,,,0.00,gsc,2014-02-03 00:37:00,
2014-02-02 19:42:00,45.9,45.6,29.81,NNW,337,0.0,0.0,99,0.00,,,0.00,gsc,2014-02-03 00:42:00,
2014-02-02 19:47:00,45.9,45.6,29.80,North,0,3.0,0.0,99,0.00,,,0.00,gsc,2014-02-03 00:47:00,
2014-02-02 19:52:00,45.9,45.6,29.80,North,0,3.0,0.0,99,0.00,,,0.00,gsc,2014-02-03 00:52:00,
2014-02-02 19:57:00,45.9,45.6,29.79,NE,45,0.0,0.0,99,0.01,,,0.00,gsc,2014-02-03 00:57:00,
2014-02-02 20:02:00,45.9,45.6,29.79,South,180,0.0,0.0,99,0.01,,,0.00,gsc,2014-02-03 01:02:00,
2014-02-02 20:07:00,45.9,45.6,29.78,SW,225,1.0,0.0,99,0.00,,,0.00,gsc,2014-02-03 01:07:00,
2014-02-02 20:12:00,45.9,45.6,29.79,WSW,247,2.0,0.0,99,0.00,,,0.00,gsc,2014-02-03 01:12:00,
2014-02-02 20:17:00,45.9,45.6,29.77,East,90,3.0,0.0,99,0.00,,,0.00,gsc,2014-02-03 01:17:00,
2014-02-02 20:22:00,45.9,45.6,29.77,East,90,0.0,0.0,99,0.00,,,0.00,gsc,2014-02-03 01:22:00,
2014-02-02 20:27:00,45.9,45.6,29.78,NW,315,0.0,0.0,99,0.00,,,0.00,gsc,2014-02-03 01:27:00,
2014-02-02 20:32:00,45.9,45.6,29.78,North,0,3.0,0.0,99,0.00,,,0.00,gsc,2014-02-03 01:32:00,
2014-02-02 20:37:00,45.7,45.4,29.79,NNW,337,2.0,0.0,99,0.00,,,0.00,gsc,2014-02-03 01:37:00,
2014-02-02 20:42:00,45.7,45.4,29.78,NE,45,0.0,0.0,99,0.01,,,0.00,gsc,2014-02-03 01:42:00,
2014-02-02 20:47:00,45.7,45.4,29.79,North,0,4.0,0.0,99,0.00,,,0.00,gsc,2014-02-03 01:47:00,
2014-02-02 20:52:00,45.9,45.6,29.80,WSW,247,3.0,0.0,99,0.00,,,0.00,gsc,2014-02-03 01:52:00,
2014-02-02 20:57:00,45.5,45.2,29.78,North,0,6.0,0.0,99,0.00,,,0.00,gsc,2014-02-03 01:57:00,
2014-02-02 21:02:00,44.1,43.8,29.80,WNW,292,10.0,0.0,99,0.00,,,0.00,gsc,2014-02-03 02:02:00,
2014-02-02 21:07:00,43.9,43.6,29.79,NNW,337,8.0,0.0,99,0.00,,,0.00,gsc,2014-02-03 02:07:00,
2014-02-02 21:12:00,43.2,42.9,29.81,NNE,22,5.0,0.0,99,0.00,,,0.00,gsc,2014-02-03 02:12:00,
2014-02-02 21:17:00,42.8,42.5,29.79,North,0,5.0,0.0,99,0.00,,,0.00,gsc,2014-02-03 02:17:00,
2014-02-02 21:22:00,42.3,42.0,29.79,NNE,22,6.0,0.0,99,0.00,,,0.00,gsc,2014-02-03 02:22:00,
2014-02-02 21:27:00,42.3,42.0,29.80,NNE,22,5.0,0.0,99,0.00,,,0.00,gsc,2014-02-03 02:27:00,
2014-02-02 21:32:00,42.1,41.8,29.79,NE,45,4.0,0.0,99,0.00,,,0.00,gsc,2014-02-03 02:32:00,
2014-02-02 21:37:00,41.5,41.3,29.80,NNW,337,4.0,0.0,99,0.00,,,0.00,gsc,2014-02-03 02:37:00,
2014-02-02 21:42:00,41.4,41.1,29.80,NNW,337,4.0,0.0,99,0.00,,,0.00,gsc,2014-02-03 02:42:00,
2014-02-02 21:47:00,41.4,41.1,29.80,NNW,337,4.0,0.0,99,0.00,,,0.00,gsc,2014-02-03 02:47:00,
2014-02-02 21:52:00,41.2,40.9,29.80,NNE,22,4.0,0.0,99,0.00,,,0.00,gsc,2014-02-03 02:52:00,
2014-02-02 21:57:00,41.0,40.7,29.80,NNW,337,4.0,0.0,99,0.00,,,0.00,gsc,2014-02-03 02:57:00,
2014-02-02 22:02:00,40.6,40.4,29.80,NNW,337,5.0,0.0,99,0.00,,,0.00,gsc,2014-02-03 03:02:00,
2014-02-02 22:07:00,40.5,40.2,29.79,NNW,337,4.0,0.0,99,0.00,,,0.00,gsc,2014-02-03 03:07:00,
2014-02-02 22:12:00,40.5,40.2,29.79,NNE,22,4.0,0.0,99,0.01,,,0.00,gsc,2014-02-03 03:12:00,
2014-02-02 22:17:00,40.5,40.2,29.79,WNW,292,4.0,0.0,99,0.00,,,0.00,gsc,2014-02-03 03:17:00,
2014-02-02 22:22:00,40.3,40.0,29.79,NNW,337,4.0,0.0,99,0.00,,,0.00,gsc,2014-02-03 03:22:00,
2014-02-02 22:27:00,40.3,40.0,29.79,NNW,337,4.0,0.0,99,0.00,,,0.00,gsc,2014-02-03 03:27:00,
2014-02-02 22:32:00,39.9,39.7,29.78,North,0,5.0,0.0,99,0.00,,,0.00,gsc,2014-02-03 03:32:00,
2014-02-02 22:37:00,39.9,39.7,29.78,NNE,22,6.0,0.0,99,0.01,,,0.00,gsc,2014-02-03 03:37:00,
2014-02-02 22:42:00,39.9,39.7,29.78,NNE,22,4.0,0.0,99,0.00,,,0.00,gsc,2014-02-03 03:42:00,
2014-02-02 22:47:00,39.9,39.7,29.78,NNW,337,3.0,0.0,99,0.00,,,0.00,gsc,2014-02-03 03:47:00,
2014-02-02 22:52:00,39.9,39.7,29.78,North,0,5.0,0.0,99,0.00,,,0.00,gsc,2014-02-03 03:52:00,
2014-02-02 22:57:00,39.9,39.7,29.78,NNW,337,4.0,0.0,99,0.00,,,0.00,gsc,2014-02-03 03:57:00,
2014-02-02 23:02:00,39.7,39.5,29.79,WNW,292,3.0,0.0,99,0.01,,,0.00,gsc,2014-02-03 04:02:00,
2014-02-02 23:07:00,39.7,39.5,29.78,NNW,337,4.0,0.0,99,0.00,,,0.00,gsc,2014-02-03 04:07:00,
2014-02-02 23:12:00,39.7,39.5,29.77,NNW,337,5.0,0.0,99,0.01,,,0.00,gsc,2014-02-03 04:12:00,
2014-02-02 23:17:00,39.7,39.5,29.77,NNW,337,5.0,0.0,99,0.00,,,0.00,gsc,2014-02-03 04:17:00,
2014-02-02 23:22:00,39.6,39.3,29.78,NNW,337,5.0,0.0,99,0.00,,,0.00,gsc,2014-02-03 04:22:00,
2014-02-02 23:27:00,39.6,39.3,29.77,NNW,337,4.0,0.0,99,0.00,,,0.00,gsc,2014-02-03 04:27:00,
2014-02-02 23:32:00,39.6,39.3,29.79,NNE,22,4.0,0.0,99,0.00,,,0.00,gsc,2014-02-03 04:32:00,
2014-02-02 23:37:00,39.6,39.3,29.78,NNE,22,4.0,0.0,99,0.01,,,0.00,gsc,2014-02-03 04:37:00,
2014-02-02 23:42:00,39.6,39.3,29.77,NNW,337,5.0,0.0,99,0.00,,,0.00,gsc,2014-02-03 04:42:00,
2014-02-02 23:47:00,39.6,39.3,29.77,NNW,337,4.0,0.0,99,0.00,,,0.00,gsc,2014-02-03 04:47:00,
2014-02-02 23:52:00,39.4,39.1,29.78,North,0,4.0,0.0,99,0.00,,,0.00,gsc,2014-02-03 04:52:00,
2014-02-02 23:57:00,39.4,39.1,29.77,NNW,337,5.0,0.0,99,0.00,,,0.00,gsc,2014-02-03 04:57:00,